CAPE
0 0 0 0 0 0 0 0 0 0 0 0 0 0 0 0 0 0 0 0 0 0 0 0 0 0 0 0 0 0 0 0 0 0 0 0 0 0 0 0 0 0 0
0 0 0 0 0 0 0 0 0 0 0 0 0 0 0 0 0 0 0 0 0 0 0 0 0 0 0 0 0 0 0 0 0 0 0 0 0 0 0 0 0 0 0
0 0 0 0 0 0 0 0 0 0 0 0 0 0 0 0 0 0 0 0 0 0 0 0 0 0 0 0 0 0 0 0 0 0 0 0 0 0 0 0 0 0 0
0 0 0 0 0 0 0 0 0 0 0 0 0 0 0 0 0 0 0 0 0 0 0 0 0 0 0 0 0 0 0 0 0 0 0 0 0 0 0 0 0 0 0
0 0 0 0 0 0 0 0 0 0 0 0 0 0 0 0 0 0 0 0 0 0 0 0 0 0 0 0 0 0 0 0 0 0 0 0 0 0 0 0 0 0 0
0 0 0 0 0 0 0 0 0 0 0 0 0 0 0 0 0 0 0 0 0 0 0 0 0 0 0 0 0 0 0 0 0 0 0 0 0 0 0 0 0 0 0
0 0 0 0 0 0 0 0 0 0 0 1 1 0 0 0 0 0 0 0 0 0 0 0 0 0 0 0 0 0 0 0 0 0 0 0 0 0 0 0 0 0 0
0 0 0 0 0 0 0 0 0 0 0 0 0 0 0 0 0 0 0 0 0 0 0 0 0 0 0 0 0 0 0 0 0 0 0 0 0 0 0 0 0 0 0
0 0 0 0 0 0 0 0 0 0 0 0 0 0 0 0 0 0 0 0 0 0 0 0 0 0 0 0 0 0 0 0 0 0 0 0 0 0 0 0 0 0 0
0 0 0 0 0 0 0 0 0 0 0 0 0 0 0 0 0 0 0 0 0 0 0 0 0 0 0 0 0 0 0 0 0 0 0 0 0 0 0 0 0 0 0
0 2 0 0 0 0 0 0 0 0 0 0 0 0 0 0 0 0 0 0 0 0 0 0 0 0 0 0 0 0 0 0 0 0 0 0 0 0 0 0 0 0 0
2 4 2 1 1 0 0 0 0 0 0 0 0 0 0 0 0 0 0 0 0 0 0 0 0 1 0 0 0 0 0 0 0 0 0 0 0 0 0 0 0 0 0
5 5 4 4 5 5 4 4 2 0 0 0 0 0 0 0 1 1 0 0 0 1 1 1 1 1 1 0 0 0 0 0 0 0 0 0 0 0 0 0 0 0 0
3 7 5 5 4 4 3 2 1 1 0 0 0 0 0 0 0 0 0 0 0 0 0 0 0 0 0 0 0 0 0 0 0 0 0 0 0 0 0 0 0 0 0
6 7 4 2 2 1 1 0 0 0 0 0 0 0 0 0 0 0 0 0 0 0 0 0 0 0 0 0 0 0 0 0 0 0 0 0 0 0 0 0 0 0 0
4 2 1 0 0 1 0 0 0 0 0 0 0 0 0 0 0 0 1 0 0 0 1 1 1 0 0 0 1 4 1 5 1 1 0 1 0 0 1 4 5 2 0
0 0 0 0 0 0 0 0 0 0 0 0 0 0 0 0 0 0 0 0 0 0 0 0 0 0 0 0 0 2 1 2 7 6 6 2 1 2 0 0 2 3 13
0 0 0 0 0 0 0 0 0 0 0 0 0 0 0 0 0 0 0 0 0 0 0 0 0 0 0 0 0 0 0 1 3 5 5 2 1 2 1 1 0 1 1
0 0 0 0 0 0 0 0 0 0 0 0 0 0 0 0 0 0 0 0 0 0 0 0 0 0 0 0 0 0 0 0 0 0 0 0 0 2 3 1 0 6 1
0 0 0 0 0 0 0 0 0 0 0 0 0 0 0 0 0 0 0 0 0 0 0 0 0 0 0 0 0 0 0 0 0 0 0 0 0 1 3 2 2 1 2
0 0 0 0 0 0 0 0 0 0 0 0 0 0 0 0 0 0 0 0 0 0 0 0 0 0 0 0 0 0 0 0 0 0 0 0 0 0 2 7 7 4 10
0 0 0 0 0 0 0 0 0 0 0 0 0 0 0 0 0 0 0 0 0 0 0 0 0 0 0 0 0 0 0 0 0 0 0 0 0 2 4 6 10 12 10
0 0 0 0 0 0 0 0 0 0 0 0 0 0 0 0 0 0 0 0 0 0 0 0 0 0 0 0 0 0 0 0 0 0 0 0 4 9 16 19 15 19 19
0 0 0 0 0 0 0 0 0 0 0 0 0 0 0 0 0 0 0 0 0 0 0 0 0 0 0 0 0 0 0 0 0 0 0 0 0 0 1 8 15 12 10
0 0 0 0 0 0 0 0 0 0 0 0 0 0 0 0 0 0 0 0 0 0 0 0 0 0 0 0 1 5 3 3 2 3 1 0 0 0 0 0 0 0 3
0 0 0 0 0 0 0 0 0 0 0 0 0 0 0 0 0 0 0 0 0 1 1 3 4 7 8 9 10 6 11 17 15 5 5 0 0 2 7 5 1 0 0
CIN
-0 -0 -0 -0 -0 -0 -0 -0 -0 -0 -0 -0 -0 -0 -0 -0 -0 -0 -0 -0 -0 -0 -0 -0 -0 -0 -0 -0 -0 -0 -0 -0 -0 -0 -0 -0 -0 -0 -0 -0 -0 -0 -0
-0 -0 -0 -0 -0 -0 -0 -0 -0 -0 -0 -0 -0 -0 -0 -0 -0 -0 -0 -0 -0 -0 -0 -0 -0 -0 -0 -0 -0 -0 -0 -0 -0 -0 -0 -0 -0 -0 -0 -0 -0 -0 -0
-0 -0 -0 -0 -0 -0 -0 -0 -0 -0 -0 -0 -0 -0 -0 -0 -0 -0 -0 -0 -0 -0 -0 -0 -0 -0 -0 -0 -0 -0 -0 -0 -0 -0 -0 -0 -0 -0 -0 -0 -0 -0 -0
-0 -0 -0 -0 -0 -0 -0 -0 -0 -0 -0 -0 -0 -0 -0 -0 -0 -0 -0 -0 -0 -0 -0 -0 -0 -0 -0 -0 -0 -0 -0 -0 -0 -0 -0 -0 -0 -0 -0 -0 -0 -0 -0
-0 -0 -0 -0 -0 -0 -0 -0 -0 -0 -0 -0 -0 -0 -0 -0 -0 -0 -0 -0 -0 -0 -0 -0 -0 -0 -0 -0 -0 -0 -0 -0 -0 -0 -0 -0 -0 -0 -0 -0 -0 -0 -0
-0 -0 -0 -0 -0 -0 -0 -0 -0 -0 -0 -0 -0 -0 -0 -0 -0 -0 -0 -0 -0 -0 -0 -0 -0 -0 -0 -0 -0 -0 -0 -0 -0 -0 -0 -0 -0 -0 -0 -0 -0 -0 -0
-0 -0 -0 -0 -0 -0 -0 -0 -0 -0 -0 -0 -0 -0 -0 -0 -0 -0 -0 -0 -0 -0 -0 -0 -0 -0 -0 -0 -0 -0 -0 -0 -0 -0 -0 -0 -0 -0 -0 -0 -0 -0 -0
-0 -0 -0 -0 -0 -0 -0 -0 -0 -0 -0 -0 -0 -0 -0 -0 -0 -0 -0 -0 -0 -0 -0 -0 -0 -0 -0 -0 -0 -0 -0 -0 -0 -0 -0 -0 -0 -0 -0 -0 -0 -0 -0
-0 -0 -0 -0 -0 -0 -0 -0 -0 -0 -0 -0 -0 -0 -0 -0 -0 -0 -0 -0 -0 -0 -0 -0 -0 -0 -0 -0 -0 -0 -0 -0 -0 -0 -0 -0 -0 -0 -0 -0 -0 -0 -0
-0 -0 -0 -0 -0 -0 -0 -0 -0 -0 -0 -0 -0 -0 -0 -0 -0 -0 -0 -0 -0 -0 -0 -0 -0 -0 -0 -0 -0 -0 -0 -0 -0 -0 -0 -0 -0 -0 -0 -0 -0 -0 -0
-0 -0 -0 -0 -0 -0 -0 -0 -0 -0 -0 -0 -0 -0 -0 -0 -0 -0 -0 -0 -0 -0 -0 -0 -0 -0 -0 -0 -0 -0 -0 -0 -0 -0 -0 -0 -0 -0 -0 -0 -0 -0 -0
-0 -0 -0 -0 -0 -0 -0 -0 -0 -0 -0 -0 -0 -0 -0 -0 -0 -0 -0 -0 -0 -0 -0 -0 -0 -0 -0 -0 -0 -0 -0 -0 -0 -0 -0 -0 -0 -0 -0 -0 -0 -0 -0
-0 -0 -0 -0 -0 -0 -0 -0 -0 -0 -0 -0 -0 -0 -0 -0 -0 -0 -0 -0 -0 -0 -0 -0 -0 -0 -0 -0 -0 -0 -0 -0 -0 -0 -0 -0 -0 -0 -0 -0 -0 -0 -0
-0 -0 -0 -0 -0 -0 -0 -0 -0 -0 -0 -0 -0 -0 -0 -0 -0 -0 -0 -0 -0 -0 -0 -0 -0 -0 -0 -0 -0 -0 -0 -0 -0 -0 -0 -0 -0 -0 -0 -0 -0 -0 -0
-0 -0 -0 -0 -0 -0 -0 -0 -0 -0 -0 -0 -0 -0 -0 -0 -0 -0 -0 -0 -0 -0 -0 -0 -0 -0 -0 -0 -0 -0 -0 -0 -0 -0 -0 -0 -0 -0 -0 -0 -0 -0 -0
-0 -0 -0 -0 -0 -0 -0 -0 -0 -0 -0 -0 -0 -0 -0 -0 -0 -0 -0 -0 -0 -0 -0 -0 -0 -0 -0 -0 -0 -1 -1 -0 -1 -1 -1 -0 -0 -0 -1 -1 -1 -1 -0
-0 -0 -0 -0 -0 -0 -0 -0 -0 -0 -0 -0 -0 -0 -0 -0 -0 -0 -0 -0 -0 -0 -0 -0 -0 -0 -0 -0 -0 -1 -2 -1 -1 -1 -1 -1 -1 -1 -1 -1 -1 -1 -1
-0 -0 -0 -0 -0 -0 -0 -0 -0 -0 -0 -0 -0 -0 -0 -0 -0 -0 -0 -0 -0 -0 -0 -0 -0 -0 -0 -0 -0 -1 -1 -1 -1 -1 -1 -1 -1 -1 -1 -1 -2 -1 -1
-0 -0 -0 -0 -0 -0 -0 -0 -0 -0 -0 -0 -0 -0 -0 -0 -0 -0 -0 -0 -0 -0 -0 -0 -0 -0 -0 -0 -0 -0 -0 -0 -0 -0 -2 -1 -1 -2 -2 -2 -2 -2 -2
-0 -0 -0 -0 -0 -0 -0 -0 -0 -0 -0 -0 -0 -0 -0 -0 -0 -0 -0 -0 -0 -0 -0 -0 -0 -0 -0 -0 -0 -0 -0 -0 -0 -0 -0 -0 -0 -1 -2 -2 -2 -1 -3
-0 -0 -0 -0 -0 -0 -0 -0 -0 -0 -0 -0 -0 -0 -0 -0 -0 -0 -0 -0 -0 -0 -0 -0 -0 -0 -0 -0 -0 -0 -0 -0 -0 -0 -0 -0 -0 -0 -1 -2 -0 -0 -1
-0 -0 -0 -0 -0 -0 -0 -0 -0 -0 -0 -0 -0 -0 -0 -0 -0 -0 -0 -0 -0 -0 -0 -0 -0 -0 -0 -0 -0 -0 -0 -0 -0 -0 -0 -0 -1 -2 -2 -2 -2 -3 -2
-0 -0 -0 -0 -0 -0 -0 -0 -0 -0 -0 -0 -0 -0 -0 -0 -0 -0 -0 -0 -0 -0 -0 -0 -0 -0 -0 -0 -0 -0 -0 -0 -0 -0 -0 -2 -2 -3 -1 -2 -3 -2 -1
-0 -0 -0 -0 -0 -0 -0 -0 -0 -0 -0 -0 -0 -0 -0 -0 -0 -0 -0 -0 -0 -0 -0 -0 -0 -0 -0 -0 -0 -0 -0 -0 -0 -0 -0 -0 -0 -0 -3 -2 -1 -0 -1
-0 -0 -0 -0 -0 -0 -0 -0 -0 -0 -0 -0 -0 -0 -0 -0 -0 -0 -0 -0 -0 -0 -0 -0 -0 -0 -0 -0 -1 -1 -1 -1 -0 -0 -2 -0 -0 -0 -0 -0 -0 -0 -1
-0 -0 -0 -0 -0 -0 -0 -0 -0 -0 -0 -0 -0 -0 -0 -0 -0 -0 -0 -0 -0 -1 -1 -3 -2 -2 -3 -5 -4 -4 -4 -3 -4 -3 -1 -0 -0 -1 -2 -2 -1 -0 -0
Wind_Speed
10 8 7 7 7 6 6 5 4 3 2 3 4 6 6 7 8 9 10 11 11 12 12 12 13 14 15 15 15 16 16 16 16 16 17 17 17 17 18 19 19 20 21
10 7 6 7 8 8 7 7 6 5 4 5 6 8 5 8 8 9 10 11 11 11 12 12 13 13 14 15 16 16 15 16 18 17 18 18 19 19 19 20 20 20 21
10 7 7 8 9 10 9 9 8 7 6 5 6 8 8 9 9 9 10 10 10 10 11 12 12 13 14 15 16 17 17 16 18 19 19 20 21 22 20 21 21 21 22
12 10 8 8 10 10 9 9 8 7 7 6 7 7 8 9 9 8 9 9 10 11 12 12 13 14 14 15 16 17 17 16 17 18 19 19 21 23 23 21 22 22 23
16 13 9 9 9 9 9 9 8 8 8 8 8 8 10 11 9 9 8 10 11 12 13 14 14 14 14 15 16 17 18 18 18 19 19 20 20 21 23 25 24 23 24
20 15 10 8 8 8 9 9 9 9 9 9 10 11 12 12 11 11 12 13 13 13 13 15 15 15 15 16 16 17 18 18 18 19 20 20 22 23 23 25 26 27 25
21 17 11 9 9 10 10 10 10 11 11 11 11 12 13 13 13 13 14 15 15 16 15 15 16 17 16 17 17 18 18 19 19 20 21 20 21 22 22 24 26 27 26
20 18 15 11 10 10 11 12 12 12 11 12 13 14 15 15 16 16 16 17 17 17 16 17 17 17 17 18 18 19 20 20 20 21 21 21 21 20 22 24 26 29 28
19 18 16 12 11 11 12 13 12 13 13 13 15 15 16 16 16 16 17 18 18 17 17 17 18 18 19 20 20 20 20 22 23 23 24 23 22 22 22 24 25 29 32
19 18 16 12 12 12 12 13 13 14 14 14 15 16 16 15 15 16 17 17 17 17 18 19 19 20 21 21 22 22 23 24 24 24 24 24 23 23 24 26 27 27 31
19 18 16 15 14 14 13 14 14 15 16 16 16 16 16 16 16 17 16 16 17 18 18 19 20 21 23 24 25 24 23 24 25 25 23 24 24 25 26 27 28 30 31
20 18 18 16 16 15 15 15 15 15 16 16 16 17 17 17 17 16 16 17 18 19 21 22 23 24 26 27 25 24 25 25 25 25 25 26 26 27 28 30 31 32 32
22 21 19 19 19 18 17 17 16 17 17 17 18 19 20 19 19 19 18 19 20 21 21 21 20 22 23 25 25 26 28 27 26 26 27 28 28 30 31 31 32 32 32
23 22 22 21 19 19 19 17 17 17 16 18 19 19 20 19 19 18 20 19 19 19 20 21 21 23 24 25 27 28 29 29 29 30 30 30 31 31 32 32 32 33 34
25 24 23 21 20 19 19 18 18 18 17 19 19 20 19 20 20 19 19 18 18 19 20 21 22 24 25 25 28 30 32 33 33 33 29 28 27 28 29 32 32 32 34
25 23 21 20 20 20 19 19 19 19 19 19 19 19 19 19 21 20 20 20 20 21 22 23 24 27 28 29 30 33 35 34 35 35 32 31 31 31 30 30 31 31 33
23 21 20 19 19 19 20 20 19 18 18 18 19 19 19 20 21 21 23 23 24 25 26 26 28 30 31 32 34 35 36 36 34 34 33 32 30 31 32 31 33 34 34
21 20 18 19 19 18 17 17 20 19 18 18 19 20 20 20 22 23 24 26 27 28 29 30 30 32 33 34 35 35 36 35 32 32 33 33 31 30 33 32 34 33 32
20 20 21 21 21 22 20 20 20 19 19 20 20 23 23 24 25 26 27 28 30 31 31 32 32 33 34 34 33 32 33 34 33 31 30 30 31 33 33 33 34 34 34
22 23 23 23 23 24 24 24 23 22 23 22 23 24 26 27 28 29 29 30 30 32 32 33 34 33 34 30 29 31 32 34 33 32 32 32 34 32 32 33 34 36 34
25 25 26 26 26 25 27 27 26 25 23 23 25 25 26 28 31 32 31 31 32 31 32 31 30 30 30 31 32 32 32 32 34 34 35 34 34 34 34 34 35 35 34
29 27 28 26 25 24 26 27 26 24 25 28 30 30 30 31 32 31 30 29 29 29 30 31 32 32 32 33 34 34 34 34 35 38 38 37 37 36 35 35 35 35 35
30 28 29 28 27 26 27 27 30 30 31 31 32 31 30 29 28 29 30 30 30 32 34 34 35 35 34 34 34 36 37 38 38 38 39 39 39 38 38 38 37 36 35
31 30 31 30 31 32 31 32 33 31 31 32 32 31 32 32 31 31 31 32 33 34 35 35 36 36 36 36 35 36 36 36 36 36 36 37 38 40 39 39 36 36 35
34 34 36 37 36 35 35 34 34 34 34 35 34 35 35 34 34 33 34 34 32 33 35 36 37 38 39 37 35 36 36 36 36 37 38 38 38 38 37 37 36 36 35
38 39 38 38 39 38 39 38 36 36 37 38 38 36 36 37 36 37 37 34 35 36 36 37 38 38 39 39 40 40 41 41 41 41 42 42 41 40 38 37 36 35 34
Wind_Direction
290 273 243 227 216 211 209 208 212 210 230 289 308 316 317 324 326 328 331 333 335 338 342 343 346 349 350 353 356 0 2 2 349 340 337 335 338 336 333 332 330 328 329
307 285 246 227 222 217 218 217 221 224 242 279 296 309 309 315 318 320 323 326 330 332 335 335 338 341 345 345 345 349 354 356 344 333 325 322 318 320 324 326 327 327 327
313 296 259 238 226 221 218 218 225 234 247 269 290 305 310 313 310 312 316 321 327 329 329 331 333 332 333 335 338 342 346 348 345 337 325 319 314 312 315 318 321 322 323
320 310 279 244 226 224 226 228 234 239 249 252 271 275 287 291 299 301 310 315 317 317 318 320 322 325 328 329 333 338 342 344 339 336 333 325 315 310 308 312 315 318 318
322 312 285 255 236 229 227 230 240 247 252 250 267 274 286 295 297 297 296 302 307 309 310 311 314 317 321 322 326 329 331 335 333 330 329 324 319 314 308 304 308 311 314
324 317 300 272 247 240 233 236 241 250 256 261 269 274 281 287 291 292 291 293 297 299 301 303 305 311 315 314 318 323 325 327 328 327 327 323 315 312 309 306 306 305 309
322 317 303 276 251 241 238 243 248 258 259 262 271 277 281 284 286 288 291 289 287 289 292 296 299 303 308 309 311 312 316 320 319 317 320 321 320 316 313 309 306 306 308
320 318 311 291 270 254 249 252 254 261 264 269 276 281 282 285 288 291 292 291 289 288 290 292 295 298 302 303 306 308 309 312 312 312 314 315 316 319 314 310 307 304 304
315 317 314 303 283 268 261 260 259 266 270 276 280 282 284 286 290 294 294 292 292 292 291 292 293 295 297 299 301 303 305 305 305 306 306 309 311 313 313 311 307 303 301
309 312 310 306 297 286 276 270 270 271 276 280 282 284 287 291 294 295 294 290 291 292 292 292 293 294 294 296 297 299 299 301 301 302 304 306 308 309 308 305 304 304 301
304 306 308 306 297 292 285 278 278 279 282 283 285 286 289 293 297 297 296 293 292 292 292 294 293 293 292 293 293 294 297 296 298 301 303 304 305 305 304 303 303 302 300
301 301 302 301 298 295 289 286 285 283 284 287 290 293 296 295 299 298 299 297 296 297 296 294 293 292 290 290 292 294 293 295 297 299 300 301 302 302 302 301 300 299 300
294 295 295 295 294 294 290 289 285 283 287 288 292 289 296 297 294 296 299 298 297 298 297 298 296 294 294 291 294 295 294 298 299 298 297 298 299 299 300 299 299 300 300
287 288 291 292 292 292 293 289 293 292 289 292 296 293 296 300 297 297 299 301 301 300 299 299 300 295 296 296 295 294 295 297 298 298 299 300 299 299 299 299 299 299 298
284 286 285 289 291 292 292 292 291 296 298 297 298 299 300 300 302 302 305 308 304 303 302 301 300 297 298 298 295 295 295 296 298 299 302 303 302 301 300 298 297 297 296
287 286 286 289 292 294 294 294 293 297 300 301 300 301 302 301 303 306 306 306 306 306 303 302 299 296 296 296 296 295 296 297 298 299 302 302 301 300 297 295 293 292 293
299 297 296 295 295 296 296 296 299 303 303 303 304 300 302 303 304 304 305 305 305 303 302 301 300 298 297 297 297 297 297 297 300 301 302 301 302 301 299 297 294 291 289
308 308 306 302 301 302 303 302 297 304 306 305 304 302 306 305 305 305 305 304 303 302 301 301 301 299 298 298 299 299 298 300 301 301 300 299 300 299 298 296 294 292 291
320 317 310 304 308 302 304 300 304 310 305 304 304 302 305 304 304 304 303 303 302 301 301 301 301 300 299 301 304 304 302 301 300 301 300 298 298 296 295 294 292 291 291
326 319 309 307 307 308 307 304 305 307 304 306 306 306 304 304 305 306 306 304 303 302 302 301 301 302 302 305 305 304 303 302 301 300 298 297 295 294 293 291 291 290 290
321 317 311 308 307 308 307 306 306 306 310 310 308 308 306 306 305 304 304 304 303 305 305 305 306 305 305 305 304 303 301 300 300 299 298 298 295 295 293 291 290 289 291
315 320 311 318 318 319 317 314 312 313 311 308 305 304 304 304 305 306 306 307 308 307 306 305 305 305 304 304 303 302 300 298 296 296 296 295 294 294 293 291 290 289 289
319 320 317 318 316 315 315 315 308 308 307 306 306 308 308 308 308 307 306 306 306 305 304 304 304 304 305 304 303 301 300 297 297 296 295 294 294 293 291 290 289 287 286
320 319 316 314 313 309 309 308 308 309 309 308 308 308 307 307 307 306 306 305 304 303 302 302 302 303 303 303 303 302 302 301 300 299 297 296 295 292 290 290 289 288 286
316 313 309 308 309 310 310 310 308 308 308 307 306 306 306 305 305 304 304 304 303 301 301 301 301 301 301 302 303 301 300 300 299 298 296 295 294 293 292 291 288 286 284
313 312 311 311 311 310 309 309 309 308 306 305 305 304 304 304 305 303 303 303 301 299 299 300 299 300 300 301 301 301 300 299 299 297 295 294 293 292 293 291 289 288 282